Location: Newark
(52.3735°N, 16.9806°E)
Time: 06:40:15
(UTC+00:00)

Nauka - Pass Details

Date: 04 October 2021
Orbit: 417 x 423 km, 51.6° (Epoch: 24 October)

Event Time Altitude Azimuth Distance (km) Brightness Sun altitude
Rises 17:32:09 0° 281° (W) 2,366 ? -11.5°
Reaches altitude 10° 17:34:36 10° 263° (W) 1,500 ? -11.9°
Maximum altitude 17:37:08 20° 215° (SW) 1,038 ? -12.3°
Drops below altitude 10° 17:39:39 10° 166° (SSE) 1,496 ? -12.6°
Enters shadow 17:40:29 - 158° (SSE) 1,767 ? -12.8°
